Tracking 28792 objects as of 25-Apr-2024
HD Live streaming from Space Station
objects crossing your sky now

BREEZE-M R/B

Track BREEZE-M R/B now!


NORAD ID: 43433
Int'l Code: 2018-037B
Perigee: 35,618.4 km
Apogee: 41,925.6 km
Inclination: 5.9 °
Period: 1,590.9 minutes
Semi major axis: 45142 km
RCS: Unknown
Launch date: April 18, 2018
Source: Commonwealth of Independent States (former USSR) (CIS)
Launch site: TYURATAM MISSILE AND SPACE COMPLEX (TTMTR)

Note: This is a ROCKET BODY
Your satellite tracking list
Your tracking list is empty




NASA's NSSDC Master Catalog

Two Line Element Set (TLE):
1 43433U 18037B   24114.80801081 -.00000124  00000-0  00000-0 0  9992
2 43433   5.9002  79.4645 0698578  10.0274 351.2630  0.90514348 20104
Source of the keplerian elements: AFSPC